[Iaude] MPEC F52: 2024 FN1 [a=0.97,e=0.15,i=9.6,H=26.1]

mpec at cfa.harvard.edu mpec at cfa.harvard.edu
Wed Mar 20 16:38:20 EDT 2024


M.P.E.C. 2024-F52                                Issued 2024 March 20, 20:36 UT

     The Minor Planet Electronic Circulars contain information on unusual
         minor planets, routine data on comets and natural satellites,
         and occasional editorial announcements.  They are published
    on behalf of Division F of the International Astronomical Union by the
          Minor Planet Center, Smithsonian Astrophysical Observatory,
                          Cambridge, MA 02138, U.S.A.
			  
             Prepared using the Tamkin Foundation Computer Network

                              MPC at CFA.HARVARD.EDU
            URL https://www.minorplanetcenter.net/    ISSN 1523-6714

                                    2024 FN1                                    


Observations:
     K24F01N  C2024 03 17.49364413 02 04.790-07 29 19.55         20.86GVEF052F51
     K24F01N  C2024 03 17.50747313 02 05.421-07 27 12.49         20.63GVEF052F51
     K24F01N  C2024 03 17.52129613 02 06.079-07 25 05.55         20.62GVEF052F51
     K24F01N* C2024 03 19.47396413 05 46.513-01 54 19.57         20.51wXEF052F52
     K24F01N  C2024 03 19.48511013 05 47.144-01 52 13.70         20.16wXEF052F52
     K24F01N  C2024 03 19.49626513 05 47.751-01 50 09.03         20.56wXEF052F52
     K24F01N  C2024 03 19.50743413 05 48.375-01 48 03.91         20.75wXEF052F52
     K24F01N  C2024 03 19.56132413 05 51.498-01 37 57.38         20.48GVEF052F51
     K24F01N  C2024 03 19.56196613 05 51.540-01 37 50.12         20.43GVEF052F51
     K24F01N 1C2024 03 19.56804713 05 51.772-01 36 39.13         20.44GVEF052T12
     K24F01N 1C2024 03 19.56924713 05 51.847-01 36 25.66         20.64GVEF052T12
     K24F01N 1C2024 03 19.57025713 05 51.913-01 36 14.21         20.44GVEF052T12
     K24F01N 1C2024 03 20.26146013 07 27.458+00 37 37.38         20.60GVEF052G96
     K24F01N 1C2024 03 20.26768813 07 27.937+00 38 53.48         20.61GVEF052G96
     K24F01N 1C2024 03 20.27391013 07 28.441+00 40 08.15         20.47GVEF052G96
     K24F01N 1C2024 03 20.28015413 07 28.902+00 41 23.71         20.31GVEF052G96
     K24F01N KC2024 03 20.28352813 07 29.114+00 42 04.54         20.60GVEF052I52
     K24F01N KC2024 03 20.28446013 07 29.201+00 42 15.52         20.65GVEF052I52
     K24F01N KC2024 03 20.28539313 07 29.298+00 42 26.60         20.39GVEF052I52
     K24F01N KC2024 03 20.28632013 07 29.327+00 42 37.98         20.40GVEF052I52

Observer details:
F51 Pan-STARRS 1, Haleakala.  Observers J. Herman, T. Lowe, P. Minguez, A.
    Schultz, I. Smith.  Measurers K. Chambers, T. de Boer, J. Fairlamb, H.
    Gao, M. Huber, C.-C. Lin, E. Magnier, Y. Ramanjooloo, R. Wainscoat, R.
    Weryk.  1.8-m Ritchey-Chretien + CCD.
F52 Pan-STARRS 2, Haleakala.  Observers J. Herman, T. Lowe, P. Minguez, A.
    Schultz, I. Smith.  Measurers K. Chambers, T. de Boer, J. Fairlamb, H.
    Gao, M. Huber, C.-C. Lin, E. Magnier, Y. Ramanjooloo, R. Wainscoat, R.
    Weryk.  1.8-m Ritchey-Chretien + CCD.
G96 Mt. Lemmon Survey.  Observer G. J. Leonard.  Measurers T. Beuden, V. F.
    Carvajal, D. Fay, J. B. Fazekas, D. C. Fuls, A. R. Gibbs, A. D. Grauer, H.
    Groeller, J. K. Hogan, R. A. Kowalski, S. M. Larson, G. J. Leonard, D.
    Rankin, R. L. Seaman, F. C. Shelly, K. W. Wierzchos.  1.5-m reflector +
    10K CCD.
I52 Steward Observatory, Mt. Lemmon Station.  Observer R. A. Kowalski.
    Measurers T. Beuden, V. F. Carvajal, D. Fay, J. B. Fazekas, D. C. Fuls, A.
    R. Gibbs, A. D. Grauer, H. Groeller, J. K. Hogan, R. A. Kowalski, S. M.
    Larson, G. J. Leonard, D. Rankin, R. L. Seaman, F. C. Shelly, K. W.
    Wierzchos.  1.0-m prime focus + CCD.
T12 University of Hawaii 88-inch telescope, Maunakea.  Observer J. Fairlamb.
    Measurers R. Weryk, J. Fairlamb, Y. Ramanjooloo, R. Wainscoat.  2.24-m
    f/10.1 reflector + CCD.

Orbital elements:
2024 FN1                                                 Earth MOID = 0.0410 AU
Epoch 2024 Mar. 31.0 TT = JDT 2460400.5                 MPC                     
M 257.74702              (2000.0)            P               Q                  
n   1.02510293     Peri.  129.54141     +0.61544641     +0.78816544             
a   0.9741468      Node   178.42147     -0.76450204     +0.59836175             
e   0.1451901      Incl.    9.56849     -0.19173511     +0.14407798             
P   0.96           H   26.10          G   0.15           U   6                  
Residuals in seconds of arc
240317 F51  0.0   0.1+    240319 F51  0.1-  0.0     240320 G96  0.3+  0.0
240317 F51  0.1-  0.1+    240319 F51  0.0   0.1+    240320 G96  0.2+  0.2+
240317 F51  0.1+  0.2-    240319 T12  0.0   0.0     240320 I52  0.3-  0.2+
240319 F52  0.2-  0.8-    240319 T12  0.0   0.1-    240320 I52  0.0   0.1-
240319 F52  0.1+  0.5+    240319 T12  0.0   0.0     240320 I52  0.4+  0.2-
240319 F52  0.0   0.2+    240320 G96  0.3-  0.5-    240320 I52  0.2-  0.1-
240319 F52  0.1+  0.1+    240320 G96  0.3-  0.5+

Ephemeris:
2024 FN1                 a,e,i = 0.97, 0.15, 10                  q = 0.8327
Date    TT    R. A. (2000) Decl.     Delta      r    Elong.  Phase     V
2024 02 19    12 26 44.5 -30 42 48   0.1672  1.0947   125.9    47.0    24.2
...
2024 03 05    12 44 49.1 -25 27 07   0.1042  1.0737   140.0    36.5    22.8
...
2024 03 13    12 55 04.9 -16 38 46   0.07414 1.0598   151.8    26.3    21.8
...
2024 03 19    13 04 50.1 -03 19 40   0.05531 1.0483   162.0    17.0    20.8
2024 03 20    13 06 49.3 -00 12 55   0.05269 1.0463   162.9    16.3    20.7
2024 03 21    13 08 57.4 +03 12 32   0.05028 1.0443   162.9    16.3    20.6
...
2024 03 27    13 26 37.3 +30 11 18   0.04142 1.0316   144.0    34.7    20.7
...
2024 04 04    14 26 41.0 +67 39 44   0.04803 1.0135   104.8    72.6    22.1
...
2024 04 19    22 50 26.5 +76 34 32   0.08845 0.9768    69.5   105.7    24.7

A. U. Tomatic                (C) Copyright 2024 MPC           M.P.E.C. 2024-F52





More information about the Iaude mailing list